Flag for Cuba Weather past 2 weeks in Holguín, Cuba

Now
66 °F

Sunny.


Feels Like: 66 °F
Forecast: 69 / 87 °F
Wind: 1 mph from Southwest

Location: Holguin Civ / Mil

Current Time: Mar 5, 2015 at 7:55:52 AM

Latest Report: Mar 5, 2015 at 6:50 AM


Visibility: 5 mi

Pressure: 30.07 "Hg

Humidity: 88%

Dew point: 63 °F

Location of HolguínLocation

Historic Weather in Holguín — Graph

°F

Holguín temperature yesterday

Maximum temperature yesterday: 86 °F (at 1:50 PM)
Minimum temperature yesterday: 68 °F (at 5:50 AM)
Average temperature yesterday: 77 °F

Past Weeks' High & Low Weather Summary

 TemperatureHumidityPressure
High93 °F (Feb 25, 2:57 PM)94% (Feb 19, 1:51 AM)30.18 "Hg (Feb 19, 1:51 AM)
Low64 °F (Feb 18, 6:50 AM)28% (Feb 25, 2:57 PM)29.89 "Hg (Feb 25, 2:57 PM)
Average76 °F68%30.06 "Hg
* Reported Feb 18 6:50 AM — Mar 5 6:50 AM, Holguín, Weather by CustomWeather, © 2015

Note: Actual official high and low records may vary slightly from our data, if they occured in-between our weather recording intervals... More about our weather records

Advertising

Holguín weather history for previous 24 hours

 ConditionsComfort  
Time TempWeatherWind HumidityBarometerVisibility
6:50 AM
Thu, Mar 5
66 °FSunny.1 mph88%30.07 "Hg5 mi
5:50 AM72 °FClear.3 mph78%30.04 "Hg6 mi
4:50 AM73 °FClear.9 mph78%30.01 "Hg10 mi
3:50 AM72 °FPassing clouds.9 mph83%30.01 "HgN/A
2:50 AM72 °FClear.6 mph83%30.01 "Hg10 mi
1:50 AM73 °FClear.9 mph78%30.04 "Hg10 mi
12:50 AM72 °FClear.8 mph83%30.07 "Hg10 mi
11:50 PM
Wed, Mar 4
73 °FClear.9 mph78%30.07 "Hg10 mi
10:50 PM73 °FClear.10 mph78%30.07 "Hg10 mi
9:50 PM73 °FClear.8 mph78%30.09 "Hg10 mi
8:50 PM75 °FPassing clouds.12 mph69%30.07 "HgN/A
7:50 PM77 °FPassing clouds.13 mph65%30.04 "HgN/A
6:50 PM77 °FPassing clouds.16 mph65%30.04 "HgN/A
5:50 PM79 °FPassing clouds.22 mph61%30.01 "HgN/A
4:50 PM82 °FPassing clouds.21 mph48%29.98 "HgN/A
3:50 PM86 °FPassing clouds.20 mph43%29.98 "HgN/A
2:51 PM86 °FPassing clouds.20 mph46%30.01 "HgN/A
1:50 PM86 °FScattered clouds.16 mph43%30.01 "HgN/A
12:51 PM82 °FScattered showers. Broken clouds.16 mph55%N/A5 mi
11:50 AM82 °FScattered clouds.23 mph51%30.07 "HgN/A
10:50 AM82 °FScattered clouds.20 mph55%30.09 "HgN/A
9:50 AM81 °FScattered clouds.20 mph54%30.09 "HgN/A
8:50 AM79 °FScattered clouds.20 mph61%30.09 "HgN/A
7:50 AM75 °FPassing clouds.12 mph69%30.07 "Hg6 mi
Weather by CustomWeather, © 2015

See weather overviewHow to use our weather pages